Location: Altoona
(40.5167°N, 78.4000°W)
Time: 23:38:11
(UTC-04:00)

Daily predictions for brighter satellites

Satellite Brightness Start Highest point End
(mag) Time Altitude Azimuth Time Altitude Azimuth Time Altitude Azimuth
Cosmos 1833 Rocket 4.5 20:54:40 10° N 20:58:22 17° NE 21:02:01 10° E
Envisat 3.9 20:56:11 10° SE 21:00:39 32° ENE 21:05:08 10° N
Cosmos 1844 Rocket 3.0 20:55:58 10° SSW 21:01:37 75° WNW 21:07:17 10° NNE
Meteor 2-6 Rocket 4.3 20:57:07 10° N 21:03:05 80° E 21:08:51 10° SSE
Cosmos 1825 2.9 21:00:00 10° SSE 21:03:25 33° E 21:06:53 10° NNE
FENGYUN 3A 4.0 20:58:18 10° S 21:03:41 72° WSW 21:09:05 10° NNW
Cosmos 2278 Rocket 2.3 21:00:52 10° S 21:06:25 58° ESE 21:11:59 10° NNE
Atlas Centaur 2 3.3 21:05:11 10° SW 21:06:46 12° SSW 21:08:18 10° S
COSMOS 2406 4.4 21:02:48 10° NW 21:08:13 44° WSW 21:13:34 10° S
ERS-1 Rocket 3.2 21:04:43 10° SSE 21:09:38 57° ENE 21:14:35 10° N
Cosmos 1420 Rocket 4.4 21:07:38 10° S 21:12:31 41° ESE 21:17:24 10° NNE
Cosmos 1844 3.9 21:07:25 10° SSW 21:13:11 81° WNW 21:19:02 10° NNE
Timation 2 Rocket 4.4 21:07:48 10° NNW 21:13:31 45° ENE 21:19:05 11° SE
ISS -2.2 21:10:41 10° WSW 21:13:51 46° NNW 21:17:00 10° NE
H-2A R/B 2.8 21:10:01 10° SE 21:13:55 35° ENE 21:17:45 10° N
Cosmos 1140 Rocket 3.9 21:10:52 10° N 21:15:49 46° ENE 21:20:40 11° SE
APEX 4.0 21:13:55 10° S 21:17:34 39° ESE 21:22:13 10° NE
Okean 3 3.9 21:13:58 10° N 21:18:03 43° ENE 21:22:04 10° SSE
Cosmos 407 Rocket 4.0 21:13:01 10° NNW 21:18:16 64° WSW 21:23:31 10° S
Cosmos 2154 Rocket 4.0 21:12:27 10° S 21:18:36 68° E 21:24:45 10° NNE
Cosmos 1939 Rocket 3.1 21:15:21 10° SSE 21:19:05 48° ENE 21:22:55 10° N
COSMOS 2487 2.5 21:18:54 10° NNW 21:22:31 69° ENE 21:25:58 11° SSE
Cosmos 1238 Rocket 2.9 21:19:11 10° N 21:22:34 50° E 21:26:36 10° SSE
Abrixas 3.3 21:19:54 10° SSW 21:22:36 30° SE 21:25:19 10° ENE
YAOGAN 11 4.2 21:18:38 10° SSE 21:23:10 87° W 21:27:46 10° NNW
Cosmos 2082 Rocket 3.1 21:21:30 10° N 21:26:41 34° ENE 21:30:58 14° ESE
SPOT 5 3.7 21:23:32 11° SE 21:28:15 42° ENE 21:33:17 10° N
Cosmos 1452 Rocket 4.0 21:28:33 10° SSW 21:33:46 65° WNW 21:39:02 10° NNE
Lacrosse 5 3.2 21:34:14 10° SSE 21:37:33 18° ESE 21:40:53 10° ENE
Cosmos 1184 Rocket 2.7 21:34:58 10° S 21:38:17 85° E 21:41:40 10° N
Intercosmos 25 3.5 21:38:00 15° SSE 21:40:26 36° E 21:43:23 10° NNE
H-2A R/B 3.9 21:40:11 11° E 21:42:55 16° ENE 21:46:01 10° NNE
Cosmos 2297 3.7 21:39:30 10° S 21:45:06 62° ESE 21:50:46 10° NNE
MetOp-B 4.4 21:43:40 17° SE 21:47:39 52° ENE 21:52:51 10° N
Meteor 1-14 Rocket 4.4 21:44:03 10° SSE 21:49:28 49° E 21:54:49 10° NNE
Meteor 2-13 Rocket 4.4 21:45:42 10° S 21:51:49 73° E 21:57:58 10° NNE
Okean 2 Rocket 3.0 21:48:30 10° S 21:52:56 85° E 21:57:21 10° N
Cosmos 1606 4.2 21:50:53 10° NNW 21:54:31 37° W 21:58:07 10° SSW
BREEZE-M DEB (TANK) 4.2 21:54:57 10° NW 21:56:15 14° N 21:57:45 10° NE
Cosmos 1782 Rocket 3.9 21:53:20 10° SSW 21:57:47 69° W 22:02:16 10° N
SPOT 1/Viking Rocket 4.0 21:55:17 22° SE 21:58:18 44° ENE 22:03:15 10° N
EO 1 Delta rocket 4.3 21:52:47 10° N 21:58:37 77° WNW 22:03:25 10° SSW
NOSS 8 (E) 4.5 21:58:49 10° SSW 22:02:12 54° ESE 22:05:45 10° NE
USA 229 DEB 3.9 21:55:15 10° NNW 22:02:20 65° NE 22:07:00 23° SE
USA 229 3.9 21:55:21 10° NNW 22:02:26 64° NE 22:07:06 23° SE
Cosmos 1242 Rocket 2.6 21:58:48 10° NNW 22:02:30 78° W 22:04:46 22° S
Cosmos 1850 Rocket 4.1 22:00:28 10° NNW 22:05:50 84° WSW 22:09:25 21° SSE
COS B Rocket 4.4 22:03:32 10° NNW 22:07:10 40° W 22:10:26 10° SSW
Elektron 3 4.3 22:06:30 10° NW 22:09:27 68° SW 22:11:16 30° SSE
ARGOS 3.4 22:09:06 27° SE 22:11:50 53° ENE 22:17:02 10° N
YAOGAN 6 2.4 22:10:46 37° SSE 22:12:01 77° ENE 22:15:33 10° N
Cosmos 1975 Rocket 3.7 22:08:26 10° NNW 22:12:40 52° W 22:16:09 15° SSW
Cosmos 2369 Rocket 4.2 22:14:07 12° E 22:14:07 12° E 22:15:03 10° ENE
GPS 2-05 Rocket1 3.8 22:10:10 10° WSW 22:13:34 33° S 22:13:49 33° S
DNEPR-1 R/B 4.3 22:08:44 10° NW 22:13:47 52° WSW 22:16:17 24° S
Lacrosse 5 rocket 1.4 22:10:04 10° SSW 22:13:49 42° SE 22:17:25 10° ENE
Cosmos 2218 Rocket 4.0 22:08:10 13° S 22:14:01 72° E 22:20:24 10° NNE
OAO 3 Rocket 3.7 22:09:21 10° WSW 22:14:01 42° S 22:15:30 33° SE
PSLV R/B 3.2 22:16:18 47° SSW 22:16:59 70° WSW 22:19:56 10° NNW
SL-08 RB Rocket 4.2 22:15:38 32° ESE 22:17:17 46° ENE 22:21:44 10° N
CZ-4 R/B 4.1 22:14:28 10° NNE 22:18:54 42° E 22:20:06 35° SE
Cosmos 1959 Rocket 4.4 22:16:51 14° S 22:22:16 83° E 22:28:24 10° N
CZ-4 SHROUD 3.5 22:23:31 44° SSW 22:24:13 59° W 22:27:17 10° NNW
Gbstr 26 Del rocket 4.1 22:20:21 10° NW 22:25:20 43° NNE 22:27:30 25° E
Cosmos 1536 Rocket 3.6 22:21:13 10° N 22:25:41 64° E 22:27:03 42° SE
AVUM R/B 3.3 22:22:12 10° NNW 22:25:43 69° ENE 22:26:05 62° ESE
Cosmos 1727 Rocket 4.0 22:21:18 10° N 22:27:27 66° E 22:30:27 32° SSE
Cosmos 1331 Rocket 4.0 22:27:09 32° SSE 22:29:15 54° ESE 22:34:17 10° NNE
Landsat 7 4.3 22:28:19 36° ESE 22:29:35 44° ENE 22:34:05 10° N
NOSS 8 (H) 4.3 22:30:35 35° SSW 22:31:55 83° SE 22:35:40 10° NE
CZ-4C R/B 3.8 22:36:09 42° E 22:36:30 43° ENE 22:40:28 10° N
Cosmos 1110 Rocket 3.9 22:35:43 25° S 22:38:49 78° ESE 22:44:03 10° NNE
Meteor 1-20 Rocket 4.1 22:39:25 34° S 22:41:52 72° E 22:47:22 10° NNE
Cosmos 1833 Rocket 2.7 22:37:17 10° NNW 22:42:55 76° WSW 22:45:06 38° S
Terra 2.3 22:44:32 41° E 22:45:16 44° ENE 22:49:47 10° N
USA 245 3.8 22:46:36 43° SW 22:47:22 51° W 22:51:35 10° NNW
Cosmos 1339 Rocket 4.4 22:41:19 10° N 22:47:31 79° E 22:50:00 39° SSE
NOSS 3-1 (C) 4.4 22:41:43 10° NNW 22:49:07 55° NE 22:53:00 31° ESE
H-2A R/B 4.3 22:46:57 10° SW 22:50:00 19° W 22:53:02 10° NW
ISS -0.2 22:49:00 10° NW 22:50:54 14° NNW 22:52:47 10° NNE
DMSP B5D2-2 4.2 22:47:43 10° NNE 22:52:48 49° E 22:53:13 48° ESE
Cosmos 1821 Rocket 4.5 22:57:22 39° ESE 22:58:12 41° E 23:03:57 10° NNE
Abrixas 4.0 22:55:41 10° W 22:58:22 37° NNW 22:58:22 37° NNW
USA 234 3.7 22:52:55 10° ENE 22:58:07 36° ESE 22:58:07 36° ESE
Cosmos 1300 Rocket 3.4 23:04:46 75° SSW 23:05:08 87° W 23:09:37 10° N
CZ-4B R/B 4.2 23:00:33 10° N 23:05:15 48° WNW 23:08:19 20° SW
Spot 4 4.0 23:06:33 54° E 23:06:52 55° ENE 23:11:36 10° N
Cosmos 1486 Rocket 3.9 23:03:12 10° NNW 23:08:35 78° ENE 23:09:19 65° SE
Cosmos 2082 Rocket 3.4 23:05:38 10° NW 23:10:42 34° WSW 23:12:49 26° SW
Okean 1 3.5 23:06:40 10° NNW 23:10:39 69° W 23:10:39 69° W
Cosmos 2285 Rocket 4.3 23:12:34 46° ESE 23:12:50 46° ESE 23:18:53 10° NNE
Okean 1 Rocket 3.0 23:13:53 80° WSW 23:14:01 82° W 23:18:31 10° N
Cosmos 1812 3.5 23:11:33 10° NNW 23:15:11 47° W 23:15:11 47° W
Lacrosse 5 2.0 23:14:54 10° SW 23:19:59 74° NW 23:25:06 10° NE
Genesis I 3.8 23:21:07 58° NNW 23:21:07 58° NNW 23:24:40 10° NNE
H-2A R/B 2.2 23:20:50 58° SSW 23:21:45 70° WSW 23:27:02 10° NNW
Meteor 2-4 Rocket 4.0 23:20:50 10° N 23:26:09 49° ENE 23:26:19 49° E
Cosmos 1302 Rocket 4.2 23:32:20 52° SW 23:33:27 67° WNW 23:38:45 10° NNE
Okean 1-7 Rocket 4.1 23:30:45 10° NNW 23:34:56 54° W 23:34:56 54° W
Cosmos 1535 Rocket 4.4 23:37:20 61° S 23:38:35 88° W 23:45:02 10° N
Meteor 2-14 Rocket 4.3 23:42:32 71° SE 23:42:56 74° E 23:49:05 10° NNE
Cosmos 1633 4.4 23:44:51 29° N 23:44:51 29° N 23:46:46 10° N
ASTEX 1 3.7 23:39:16 10° N 23:44:11 62° W 23:44:25 61° W
Meteor 2-15 4.3 23:39:41 10° N 23:45:48 73° E 23:46:10 70° ESE
Iridium 4 Rocket 3.6 23:43:09 10° N 23:49:06 88° E 23:49:23 82° SSE
Cosmos 1315 Rocket 4.4 23:51:14 30° NNE 23:51:14 30° NNE 23:53:18 10° NNE
Lacrosse 5 rocket 3.4 23:49:57 10° W 23:53:09 24° NW 23:56:16 10° NNE
